Terminal Aerodrome Forecast
Issued by NWS Huntsville, AL

Home | Current Version | Previous Version | Text Only | Print | Product List | Glossary On
Versions: 1 2 3 4 5 6 7 8 9 10 11 12 13 14 15 16 17 18 19 20 21 22 23 24 25 26 27 28 29 30 31 32 33 34 35
000
FTUS44 KHUN 281144
TAFHSV
TAF
KHSV 281144Z 2812/2912 07007KT P6SM SCT250
     FM282100 04005KT P6SM SCT035 SCT150 SCT250
     FM290000 VRB03KT P6SM VCSH SCT025 BKN035 OVC120
     FM290400 VRB03KT 6SM -SHRA BR SCT025 BKN035 OVC120=

USA.gov is the U.S. government's official web portal to all federal, state and local government web resources and services.